Location: *
(0.1100°N, 5.5000°E)
Time: 15:02:27
(UTC+00:00)

ARIANE DEB (SYLDA) - Pass Details

Date: 07 December 2022
Orbit: 595 x 35679 km, 6.4° (Epoch: 02 February)

Event Time Altitude Azimuth Distance (km) Brightness Sun altitude
Rises 18:23:14 0° 285° (WNW) 3,068 6.5 -12.4°
Reaches altitude 10° 18:24:45 10° 289° (WNW) 2,410 5.8 -12.8°
Maximum altitude 18:29:35 62° 11° (NNE) 1,633 4.0 -13.9°
Enters shadow 18:52:39 12° 89° (E) 10,265 7.7 -19.1°
Exits shadow 19:01:20 - 90° (E) 13,019 8.2 -21.1°
Drops below altitude 10° 04:07:35 10° 95° (E) 14,808 10.1 -18.9°
Sets 04:17:00 0° 94° (E) 13,506 10.2 -16.8°
